Regional Weather Roundup
Issued by NWS

Home | Current Version | Previous Version | Graphics & Text | Print | Product List | Glossary On
Versions: 1 2 3 4 5 6 7 8 9 10 11 12 13 14 15 16 17 18 19 20 21 22 23 24 25 26 27 28 29 30 31 32 33 34 35 36 37 38 39 40 41 42 43 44 45 46 47 48 49 50
000
ASUS43 KTOP 011008
RWRKS

WEATHER ROUNDUP FOR KANSAS
NATIONAL WEATHER SERVICE GOODLAND KS
500 AM CDT WED OCT 01 2014

NOTE:  "FAIR" INDICATES FEW OR NO CLOUDS BELOW 12,000 FEET WITH NO
SIGNIFICANT WEATHER AND/OR OBSTRUCTIONS TO VISIBILITY.

KSZ001>006-013>018-027>032-041>047-011100-
NORTHWEST KANSAS

CITY           SKY/WX    TMP DP  RH WIND       PRES   REMARKS
GOODLAND       CLEAR     49  45  86 NW7       29.81R
HAYS           CLOUDY    57  54  88 NW7       29.71S
HILL CITY      FOG       62  61  96 W3        29.73S VSB 1/4
RUSSELL        FOG       60  59  96 NW5       29.70R VSB 1/4
$$

KSZ061>065-074>080-084>089-011100-
SOUTHWEST KANSAS

CITY           SKY/WX    TMP DP  RH WIND       PRES   REMARKS
DODGE CITY     CLEAR     53  45  74 N7        29.72F
GARDEN CITY    PTCLDY    56  47  71 E6        29.74S
GREAT BEND     PTCLDY    55  52  88 CALM      29.72R
LIBERAL        CLEAR     63  48  59 NE5       29.73R
PRATT          PTCLDY    64  57  77 SE13      29.72S
$$

KSZ066>073-081>083-090>101-011100-
SOUTHEAST KANSAS

CITY           SKY/WX    TMP DP  RH WIND       PRES   REMARKS
CHANUTE        MOCLDY    69  61  75 S10       29.76R
COFFEYVILLE    MOCLDY    68  61  78 S9        29.76R
HUTCHINSON     MOCLDY    69  63  81 S14       29.71S
MEDICINE LODGE   N/A     67  61  81 E7        29.70R
NEWTON         PTCLDY    68  61  77 S10       29.75S
PARSONS        PTCLDY    70  62  76 SE6       29.77S
WICHITA INTL   MOCLDY    70  64  81 S12       29.72S
WICHITA JABRA  PTCLDY    69  64  84 S12       29.72S
WICHITA MCCONL PTCLDY    69  68  96 SE12      29.73S
WINFIELD       PTCLDY    69  65  86 SE8       29.73F
$$

KSZ007>012-019>026-033>040-048>060-102>105-011100-
NORTHEAST KANSAS

CITY           SKY/WX    TMP DP  RH WIND       PRES   REMARKS
CONCORDIA      CLEAR     62  62 100 SW7       29.69R
EMPORIA        CLOUDY    67  64  90 S15       29.73R
LAWRENCE       TSTM      69  61  75 SW13G21   29.74R
MANHATTAN      PTCLDY    68  65  90 S7        29.69S
MARYSVILLE     CLOUDY    64  63  94 CALM      29.69S
OLATHE IND     MOCLDY    68  60  75 S9        29.75S
OLATHE EXE     MOCLDY    65  59  81 S12       29.74S
SALINA         LGT RAIN  68  64  87 S10       29.69R
TOPEKA BILLARD CLOUDY    67  61  81 CALM      29.73F THUNDER
TOPEKA FORBES  CLOUDY    67  63  87 CALM      29.74R
$$


USA.gov is the U.S. government's official web portal to all federal, state and local government web resources and services.